Terminal Aerodrome Forecast
Issued by NWS

Home | Current Version | Previous Version | Text Only | Print | Product List | Glossary On
Versions: 1 2 3 4 5 6 7 8 9 10 11 12 13 14 15 16 17 18 19 20 21 22 23 24 25 26 27 28 29 30 31 32 33 34 35 36 37 38 39 40 41 42 43 44 45 46 47 48 49 50
000
FTUS41 KRNK 212129 AAA
TAFLWB
TAF AMD
KLWB 212129Z 2121/2218 24008KT P6SM VCSH SCT040 BKN100
     FM212200 28008G16KT P6SM -SHRA SCT020 BKN045 OVC080
      TEMPO 2122/2124 4SM TSRA OVC020CB
     FM220100 29008G16KT P6SM SCT050
     FM220600 30004KT P6SM BKN025
     FM221400 34005KT P6SM OVC025=

USA.gov is the U.S. government's official web portal to all federal, state and local government web resources and services.